Time,TemperatureF,DewpointF,PressureIn,WindDirection,WindDirectionDegrees,WindSpeedMPH,WindSpeedGustMPH,Humidity,HourlyPrecipIn,Conditions,Clouds,dailyrainin,SolarRadiationWatts/m^2,SoftwareType,DateUTC
2013-10-05 00:00:00,69.1,68.2,30.06,NE,37,0.0,0.0,97,0.00,,,0.00,0.0,meteohub,2013-10-05 04:00:00,
2013-10-05 00:01:00,69.1,68.2,30.06,NE,37,0.0,0.0,97,0.00,,,0.00,0.0,meteohub,2013-10-05 04:01:00,
2013-10-05 00:02:00,69.1,68.2,30.06,NE,37,0.0,0.0,97,0.00,,,0.00,0.0,meteohub,2013-10-05 04:02:00,
2013-10-05 00:07:00,69.1,68.2,30.06,NE,37,0.0,0.0,97,0.00,,,0.00,0.0,meteohub,2013-10-05 04:07:00,
2013-10-05 00:12:00,69.1,68.2,30.06,NE,37,0.0,0.0,97,0.00,,,0.00,0.0,meteohub,2013-10-05 04:12:00,
2013-10-05 00:17:00,69.1,68.2,30.05,NE,37,0.0,0.0,97,0.00,,,0.00,0.0,meteohub,2013-10-05 04:17:00,
2013-10-05 00:22:00,69.1,68.2,30.05,NE,37,0.0,0.0,97,0.00,,,0.00,0.0,meteohub,2013-10-05 04:22:00,
2013-10-05 00:27:00,68.9,68.0,30.05,NE,37,0.0,0.0,97,0.00,,,0.00,0.0,meteohub,2013-10-05 04:27:00,
2013-10-05 00:32:00,68.7,67.8,30.05,NE,37,0.0,0.0,97,0.00,,,0.00,0.0,meteohub,2013-10-05 04:32:00,
2013-10-05 00:37:00,68.5,67.6,30.05,NE,37,0.0,0.0,97,0.00,,,0.00,0.0,meteohub,2013-10-05 04:37:00,
2013-10-05 00:42:00,68.5,67.6,30.05,NE,37,0.0,0.0,97,0.00,,,0.00,0.0,meteohub,2013-10-05 04:42:00,
2013-10-05 00:47:00,68.5,67.6,30.05,NE,37,0.0,0.0,97,0.00,,,0.00,0.0,meteohub,2013-10-05 04:47:00,
2013-10-05 00:52:00,68.5,67.6,30.04,NE,37,0.0,0.0,97,0.00,,,0.00,0.0,meteohub,2013-10-05 04:52:00,
2013-10-05 00:57:00,68.4,67.5,30.04,NE,37,0.0,0.0,97,0.00,,,0.00,0.0,meteohub,2013-10-05 04:57:00,
2013-10-05 01:02:00,68.4,67.5,30.05,NE,37,0.0,0.0,97,0.00,,,0.00,0.0,meteohub,2013-10-05 05:02:00,
2013-10-05 01:07:00,68.2,67.3,30.05,NE,37,0.0,0.0,97,0.00,,,0.00,0.0,meteohub,2013-10-05 05:07:00,
2013-10-05 01:12:00,68.2,67.3,30.05,NE,37,0.0,0.0,97,0.00,,,0.00,0.0,meteohub,2013-10-05 05:12:00,
2013-10-05 01:17:00,68.2,67.3,30.05,NE,37,0.0,0.0,97,0.00,,,0.00,0.0,meteohub,2013-10-05 05:17:00,
2013-10-05 01:22:00,68.2,67.3,30.05,NE,37,0.0,0.0,97,0.00,,,0.00,0.0,meteohub,2013-10-05 05:22:00,
2013-10-05 01:27:00,68.2,67.3,30.05,NE,37,0.0,0.0,97,0.00,,,0.00,0.0,meteohub,2013-10-05 05:27:00,
2013-10-05 01:32:00,68.2,67.3,30.05,NE,37,0.0,0.0,97,0.00,,,0.00,0.0,meteohub,2013-10-05 05:32:00,
2013-10-05 01:37:00,68.2,67.3,30.04,NE,37,0.0,0.0,97,0.00,,,0.00,0.0,meteohub,2013-10-05 05:37:00,
2013-10-05 01:42:00,68.0,67.1,30.04,NE,37,0.0,0.0,97,0.00,,,0.00,0.0,meteohub,2013-10-05 05:42:00,
2013-10-05 01:47:00,67.8,66.9,30.05,NE,37,0.0,0.0,97,0.00,,,0.00,0.0,meteohub,2013-10-05 05:47:00,
2013-10-05 01:52:00,67.8,66.9,30.04,NE,37,0.0,0.0,97,0.00,,,0.00,0.0,meteohub,2013-10-05 05:52:00,
2013-10-05 01:57:00,67.8,66.9,30.04,NE,37,0.0,0.0,97,0.00,,,0.00,0.0,meteohub,2013-10-05 05:57:00,
2013-10-05 02:02:00,68.0,67.1,30.04,NE,37,0.0,0.0,97,0.00,,,0.00,0.0,meteohub,2013-10-05 06:02:00,
2013-10-05 02:07:00,67.8,66.9,30.04,NE,37,0.0,0.0,97,0.00,,,0.00,0.0,meteohub,2013-10-05 06:07:00,
2013-10-05 02:12:00,67.8,66.9,30.04,NE,37,0.0,0.0,97,0.00,,,0.00,0.0,meteohub,2013-10-05 06:12:00,
2013-10-05 02:17:00,67.8,66.9,30.04,NE,37,0.0,0.0,97,0.00,,,0.00,0.0,meteohub,2013-10-05 06:17:00,
2013-10-05 02:22:00,67.6,66.7,30.04,NE,37,0.0,0.0,97,0.00,,,0.00,0.0,meteohub,2013-10-05 06:22:00,
2013-10-05 02:27:00,67.6,66.7,30.04,NE,37,0.0,0.0,97,0.00,,,0.00,0.0,meteohub,2013-10-05 06:27:00,
2013-10-05 02:32:00,67.5,66.6,30.03,NE,37,0.0,0.0,97,0.00,,,0.00,0.0,meteohub,2013-10-05 06:32:00,
2013-10-05 02:37:00,67.5,66.6,30.03,NE,37,0.0,0.0,97,0.00,,,0.00,0.0,meteohub,2013-10-05 06:37:00,
2013-10-05 02:42:00,67.5,66.6,30.03,NE,37,0.0,0.0,97,0.00,,,0.00,0.0,meteohub,2013-10-05 06:42:00,
2013-10-05 02:47:00,67.5,66.6,30.03,NE,37,0.0,0.0,97,0.00,,,0.00,0.0,meteohub,2013-10-05 06:47:00,
2013-10-05 02:52:00,67.5,66.6,30.04,NE,37,0.0,0.0,97,0.00,,,0.00,0.0,meteohub,2013-10-05 06:52:00,
2013-10-05 02:57:00,67.5,66.6,30.03,NE,37,0.0,0.0,97,0.00,,,0.00,0.0,meteohub,2013-10-05 06:57:00,
2013-10-05 03:02:00,67.5,66.6,30.03,NE,37,0.0,0.0,97,0.00,,,0.00,0.0,meteohub,2013-10-05 07:02:00,
2013-10-05 03:07:00,67.5,66.6,30.03,NE,37,0.0,0.0,97,0.00,,,0.00,0.0,meteohub,2013-10-05 07:07:00,
2013-10-05 03:12:00,67.5,66.9,30.03,NE,37,0.0,0.0,98,0.00,,,0.00,0.0,meteohub,2013-10-05 07:12:00,
2013-10-05 03:17:00,67.3,66.4,30.03,NE,37,0.0,0.0,97,0.00,,,0.00,0.0,meteohub,2013-10-05 07:17:00,
2013-10-05 03:22:00,67.3,66.7,30.03,NE,37,0.0,0.0,98,0.00,,,0.00,0.0,meteohub,2013-10-05 07:22:00,
2013-10-05 03:27:00,67.3,66.7,30.03,NE,37,0.0,0.0,98,0.00,,,0.00,0.0,meteohub,2013-10-05 07:27:00,
2013-10-05 03:32:00,67.1,66.6,30.02,NE,37,0.0,0.0,98,0.00,,,0.00,0.0,meteohub,2013-10-05 07:32:00,
2013-10-05 03:37:00,66.9,66.0,30.02,NE,37,0.0,0.0,97,0.00,,,0.00,0.0,meteohub,2013-10-05 07:37:00,
2013-10-05 03:42:00,66.9,66.0,30.02,NE,37,0.0,0.0,97,0.00,,,0.00,0.0,meteohub,2013-10-05 07:42:00,
2013-10-05 03:47:00,66.9,66.0,30.02,NE,37,0.0,0.0,97,0.00,,,0.00,0.0,meteohub,2013-10-05 07:47:00,
2013-10-05 03:52:00,67.1,66.6,30.02,NE,37,0.0,0.0,98,0.00,,,0.00,0.0,meteohub,2013-10-05 07:52:00,
2013-10-05 03:57:00,67.1,66.6,30.02,NE,37,0.0,0.0,98,0.00,,,0.00,0.0,meteohub,2013-10-05 07:57:00,
2013-10-05 04:03:00,67.1,66.6,30.02,NE,37,0.0,0.0,98,0.00,,,0.00,0.0,meteohub,2013-10-05 08:03:00,
2013-10-05 04:08:00,67.1,66.6,30.02,NE,37,0.0,0.0,98,0.00,,,0.00,0.0,meteohub,2013-10-05 08:08:00,
2013-10-05 04:13:00,67.1,66.6,30.02,NE,37,0.0,0.0,98,0.00,,,0.00,0.0,meteohub,2013-10-05 08:13:00,
2013-10-05 04:18:00,66.9,66.4,30.02,NE,37,0.0,0.0,98,0.00,,,0.00,0.0,meteohub,2013-10-05 08:18:00,
2013-10-05 04:23:00,66.9,66.4,30.02,NE,37,0.0,0.0,98,0.00,,,0.00,0.0,meteohub,2013-10-05 08:23:00,
2013-10-05 04:28:00,66.9,66.4,30.02,NE,37,0.0,0.0,98,0.00,,,0.00,0.0,meteohub,2013-10-05 08:28:00,
2013-10-05 04:33:00,66.7,66.2,30.02,NE,37,0.0,0.0,98,0.00,,,0.00,0.0,meteohub,2013-10-05 08:33:00,
2013-10-05 04:38:00,66.9,66.4,30.02,NE,37,0.0,0.0,98,0.00,,,0.00,0.0,meteohub,2013-10-05 08:38:00,
2013-10-05 04:43:00,66.9,66.4,30.02,NE,37,0.0,0.0,98,0.00,,,0.00,0.0,meteohub,2013-10-05 08:43:00,
2013-10-05 04:48:00,66.7,66.2,30.02,NE,37,0.0,0.0,98,0.00,,,0.00,0.0,meteohub,2013-10-05 08:48:00,
2013-10-05 04:53:00,66.7,66.2,30.02,NE,37,0.0,0.0,98,0.00,,,0.00,0.0,meteohub,2013-10-05 08:53:00,
2013-10-05 04:58:00,66.7,66.2,30.02,NE,37,0.0,0.0,98,0.00,,,0.00,0.0,meteohub,2013-10-05 08:58:00,
2013-10-05 05:03:00,66.9,66.4,30.01,NE,37,0.0,0.0,98,0.00,,,0.00,0.0,meteohub,2013-10-05 09:03:00,
2013-10-05 05:08:00,66.9,66.4,30.02,NE,37,0.0,0.0,98,0.00,,,0.00,0.0,meteohub,2013-10-05 09:08:00,
2013-10-05 05:13:00,66.9,66.4,30.02,NE,37,0.0,0.0,98,0.00,,,0.00,0.0,meteohub,2013-10-05 09:13:00,
2013-10-05 05:18:00,67.1,66.6,30.02,NE,37,0.0,0.0,98,0.00,,,0.00,0.0,meteohub,2013-10-05 09:18:00,
2013-10-05 05:23:00,67.1,66.6,30.02,NE,37,0.0,0.0,98,0.00,,,0.00,0.0,meteohub,2013-10-05 09:23:00,
2013-10-05 05:28:00,67.1,66.6,30.02,NE,37,0.0,0.0,98,0.00,,,0.00,0.0,meteohub,2013-10-05 09:28:00,
2013-10-05 05:33:00,67.1,66.6,30.03,NE,37,0.0,0.0,98,0.00,,,0.00,0.0,meteohub,2013-10-05 09:33:00,
2013-10-05 05:38:00,66.9,66.4,30.03,NE,37,0.0,0.0,98,0.00,,,0.00,0.0,meteohub,2013-10-05 09:38:00,
2013-10-05 05:43:00,66.7,66.2,30.03,NE,37,0.0,0.0,98,0.00,,,0.00,0.0,meteohub,2013-10-05 09:43:00,
2013-10-05 05:48:00,66.9,66.4,30.03,NE,37,0.0,0.0,98,0.00,,,0.00,0.0,meteohub,2013-10-05 09:48:00,
2013-10-05 05:53:00,66.9,66.4,30.03,NE,37,0.0,0.0,98,0.00,,,0.00,0.0,meteohub,2013-10-05 09:53:00,
2013-10-05 05:58:00,67.1,66.6,30.03,NE,37,0.0,0.0,98,0.00,,,0.00,0.0,meteohub,2013-10-05 09:58:00,
2013-10-05 06:03:00,66.9,66.4,30.03,NE,37,0.0,0.0,98,0.00,,,0.00,0.0,meteohub,2013-10-05 10:03:00,
2013-10-05 06:08:00,66.9,66.4,30.03,NE,37,0.0,0.0,98,0.00,,,0.00,0.0,meteohub,2013-10-05 10:08:00,
2013-10-05 06:13:00,66.9,66.4,30.03,NE,37,0.0,0.0,98,0.01,,,0.01,0.0,meteohub,2013-10-05 10:13:00,
2013-10-05 06:18:00,66.9,66.4,30.03,NE,37,0.0,0.0,98,0.01,,,0.01,0.0,meteohub,2013-10-05 10:18:00,
2013-10-05 06:23:00,66.9,66.4,30.04,NE,37,0.0,0.0,98,0.01,,,0.01,0.0,meteohub,2013-10-05 10:23:00,
2013-10-05 06:28:00,66.9,66.4,30.04,NE,37,0.0,0.0,98,0.01,,,0.01,0.0,meteohub,2013-10-05 10:28:00,
2013-10-05 06:33:00,66.9,66.4,30.04,NE,37,0.0,0.0,98,0.01,,,0.01,0.0,meteohub,2013-10-05 10:33:00,
2013-10-05 06:38:00,66.9,66.4,30.04,NE,37,0.0,0.0,98,0.01,,,0.01,0.0,meteohub,2013-10-05 10:38:00,
2013-10-05 06:43:00,66.7,66.2,30.04,NE,37,0.0,0.0,98,0.01,,,0.01,0.0,meteohub,2013-10-05 10:43:00,
2013-10-05 06:48:00,66.7,66.2,30.04,NE,37,0.0,0.0,98,0.01,,,0.01,0.0,meteohub,2013-10-05 10:48:00,
2013-10-05 06:53:00,66.6,66.0,30.04,NE,37,0.0,0.0,98,0.01,,,0.01,0.0,meteohub,2013-10-05 10:53:00,
2013-10-05 06:58:00,66.6,66.0,30.04,NE,37,0.0,0.0,98,0.01,,,0.01,0.0,meteohub,2013-10-05 10:58:00,
2013-10-05 07:03:00,66.7,66.2,30.04,NE,37,0.0,0.0,98,0.01,,,0.01,0.0,meteohub,2013-10-05 11:03:00,
2013-10-05 07:08:00,66.7,66.2,30.04,NE,37,0.0,0.0,98,0.00,,,0.01,0.0,meteohub,2013-10-05 11:08:00,
2013-10-05 07:13:00,66.7,66.2,30.04,NE,37,0.0,0.0,98,0.00,,,0.01,0.0,meteohub,2013-10-05 11:13:00,
2013-10-05 07:18:00,66.7,66.2,30.05,NE,37,0.0,0.0,98,0.00,,,0.01,0.0,meteohub,2013-10-05 11:18:00,
2013-10-05 07:23:00,66.7,66.2,30.05,NE,37,0.0,0.0,98,0.00,,,0.01,0.0,meteohub,2013-10-05 11:23:00,
2013-10-05 07:28:00,66.9,66.4,30.05,NE,37,0.0,0.0,98,0.00,,,0.01,5.0,meteohub,2013-10-05 11:28:00,
2013-10-05 07:34:00,66.9,66.4,30.05,NE,37,0.0,0.0,98,0.00,,,0.01,9.0,meteohub,2013-10-05 11:34:00,
2013-10-05 07:39:00,67.1,66.6,30.05,NE,37,0.0,0.0,98,0.00,,,0.01,14.0,meteohub,2013-10-05 11:39:00,
2013-10-05 07:44:00,67.3,66.7,30.05,NE,37,0.0,1.0,98,0.00,,,0.01,18.0,meteohub,2013-10-05 11:44:00,
2013-10-05 07:49:00,67.3,66.7,30.05,NE,37,0.0,1.0,98,0.00,,,0.01,23.0,meteohub,2013-10-05 11:49:00,
2013-10-05 07:54:00,67.5,66.9,30.05,NE,37,0.0,1.0,98,0.00,,,0.01,25.0,meteohub,2013-10-05 11:54:00,
2013-10-05 07:59:00,67.6,67.1,30.05,NE,37,0.0,0.0,98,0.00,,,0.01,32.0,meteohub,2013-10-05 11:59:00,
2013-10-05 08:04:00,67.8,67.3,30.05,NE,37,0.0,1.0,98,0.00,,,0.01,40.0,meteohub,2013-10-05 12:04:00,
2013-10-05 08:09:00,68.0,67.5,30.06,NE,37,0.0,2.0,98,0.00,,,0.01,46.0,meteohub,2013-10-05 12:09:00,
2013-10-05 08:14:00,68.4,67.8,30.06,NE,37,0.0,2.0,98,0.00,,,0.01,51.0,meteohub,2013-10-05 12:14:00,
2013-10-05 08:19:00,68.4,67.8,30.06,NE,37,0.0,2.0,98,0.00,,,0.01,56.0,meteohub,2013-10-05 12:19:00,
2013-10-05 08:24:00,68.5,68.0,30.06,NE,37,0.0,2.0,98,0.00,,,0.01,69.0,meteohub,2013-10-05 12:24:00,
2013-10-05 08:29:00,68.7,68.2,30.06,NE,37,0.0,2.0,98,0.00,,,0.01,77.0,meteohub,2013-10-05 12:29:00,
2013-10-05 08:34:00,69.1,68.5,30.06,NE,37,1.0,1.0,98,0.00,,,0.01,83.0,meteohub,2013-10-05 12:34:00,
2013-10-05 08:39:00,69.3,68.7,30.06,NE,37,0.0,1.0,98,0.00,,,0.01,105.0,meteohub,2013-10-05 12:39:00,
2013-10-05 08:44:00,69.4,68.9,30.06,NE,37,0.0,1.0,98,0.00,,,0.01,98.0,meteohub,2013-10-05 12:44:00,
2013-10-05 08:49:00,69.4,68.9,30.06,NE,37,0.0,2.0,98,0.00,,,0.01,102.0,meteohub,2013-10-05 12:49:00,
2013-10-05 08:55:00,69.6,69.1,30.06,NE,37,0.0,2.0,98,0.00,,,0.01,130.0,meteohub,2013-10-05 12:55:00,
2013-10-05 09:00:00,70.0,69.4,30.06,NE,37,0.0,3.0,98,0.00,,,0.01,148.0,meteohub,2013-10-05 13:00:00,
2013-10-05 09:05:00,70.2,69.6,30.06,NE,37,0.0,3.0,98,0.00,,,0.01,148.0,meteohub,2013-10-05 13:05:00,
2013-10-05 09:10:00,70.3,69.8,30.06,NE,37,0.0,3.0,98,0.00,,,0.01,195.0,meteohub,2013-10-05 13:10:00,
2013-10-05 09:15:00,70.7,70.3,30.06,NW,305,2.0,3.0,99,0.00,,,0.01,185.0,meteohub,2013-10-05 13:15:00,
2013-10-05 09:20:00,71.1,70.5,30.07,NE,45,0.0,3.0,98,0.00,,,0.01,176.0,meteohub,2013-10-05 13:20:00,
2013-10-05 09:25:00,71.2,70.9,30.07,NNW,329,3.0,3.0,99,0.00,,,0.01,202.0,meteohub,2013-10-05 13:25:00,
2013-10-05 09:30:00,71.4,70.9,30.07,NNW,340,0.0,3.0,98,0.00,,,0.01,309.0,meteohub,2013-10-05 13:30:00,
2013-10-05 09:35:00,71.8,71.2,30.07,WNW,283,2.0,3.0,98,0.00,,,0.01,239.0,meteohub,2013-10-05 13:35:00,
2013-10-05 09:40:00,71.6,71.1,30.07,WNW,287,1.0,4.0,98,0.00,,,0.01,485.0,meteohub,2013-10-05 13:40:00,
2013-10-05 09:45:00,72.0,71.6,30.07,WNW,286,0.0,4.0,99,0.00,,,0.01,459.0,meteohub,2013-10-05 13:45:00,
2013-10-05 09:50:00,72.0,71.4,30.07,West,281,1.0,4.0,98,0.00,,,0.01,527.0,meteohub,2013-10-05 13:50:00,
2013-10-05 09:55:00,72.3,71.8,30.07,WNW,292,2.0,4.0,98,0.00,,,0.01,482.0,meteohub,2013-10-05 13:55:00,
2013-10-05 10:00:00,72.9,72.5,30.07,WNW,300,1.0,4.0,99,0.00,,,0.01,497.0,meteohub,2013-10-05 14:00:00,
2013-10-05 10:05:00,72.9,72.3,30.07,NE,46,3.0,4.0,98,0.00,,,0.01,519.0,meteohub,2013-10-05 14:05:00,
2013-10-05 10:10:00,73.0,72.5,30.08,NE,54,2.0,6.0,98,0.00,,,0.01,526.0,meteohub,2013-10-05 14:10:00,
2013-10-05 10:15:00,73.8,73.2,30.08,WNW,297,0.0,6.0,98,0.00,,,0.01,550.0,meteohub,2013-10-05 14:15:00,
2013-10-05 10:20:00,74.1,73.6,30.08,NNE,18,0.0,4.0,98,0.00,,,0.01,543.0,meteohub,2013-10-05 14:20:00,
2013-10-05 10:25:00,74.3,73.0,30.08,ENE,60,0.0,8.0,96,0.00,,,0.01,608.0,meteohub,2013-10-05 14:25:00,
2013-10-05 10:30:00,74.8,73.2,30.08,NE,51,0.0,8.0,95,0.00,,,0.01,594.0,meteohub,2013-10-05 14:30:00,
2013-10-05 10:35:00,75.7,73.9,30.08,NE,46,4.0,8.0,94,0.00,,,0.01,599.0,meteohub,2013-10-05 14:35:00,
2013-10-05 10:40:00,76.3,73.4,30.07,NE,41,1.0,5.0,91,0.00,,,0.01,608.0,meteohub,2013-10-05 14:40:00,
2013-10-05 10:45:00,76.8,72.7,30.07,NE,45,3.0,7.0,87,0.00,,,0.01,624.0,meteohub,2013-10-05 14:45:00,
2013-10-05 10:50:00,77.2,72.0,30.07,NE,53,3.0,7.0,84,0.00,,,0.01,635.0,meteohub,2013-10-05 14:50:00,
2013-10-05 10:55:00,77.5,70.5,30.07,ENE,71,4.0,10.0,79,0.00,,,0.01,647.0,meteohub,2013-10-05 14:55:00,
2013-10-05 11:00:00,77.7,71.1,30.07,NE,38,0.0,10.0,80,0.00,,,0.01,657.0,meteohub,2013-10-05 15:00:00,
2013-10-05 11:05:00,78.1,70.3,30.07,NNE,30,7.0,10.0,77,0.00,,,0.01,666.0,meteohub,2013-10-05 15:05:00,
2013-10-05 11:10:00,78.3,70.0,30.07,NE,41,5.0,10.0,76,0.00,,,0.01,682.0,meteohub,2013-10-05 15:10:00,
2013-10-05 11:15:00,78.6,71.2,30.07,ENE,58,0.0,10.0,78,0.00,,,0.01,694.0,meteohub,2013-10-05 15:15:00,
2013-10-05 11:20:00,78.6,70.9,30.07,NNE,28,2.0,10.0,77,0.00,,,0.01,705.0,meteohub,2013-10-05 15:20:00,
2013-10-05 11:25:00,78.6,71.2,30.07,ENE,57,0.0,10.0,78,0.00,,,0.01,714.0,meteohub,2013-10-05 15:25:00,
2013-10-05 11:30:00,78.8,71.8,30.07,ENE,61,2.0,10.0,79,0.00,,,0.01,724.0,meteohub,2013-10-05 15:30:00,
2013-10-05 11:35:00,79.2,72.1,30.06,ENE,59,0.0,10.0,79,0.00,,,0.01,731.0,meteohub,2013-10-05 15:35:00,
2013-10-05 11:40:00,79.9,72.3,30.06,NNE,33,0.0,8.0,78,0.00,,,0.01,745.0,meteohub,2013-10-05 15:40:00,
2013-10-05 11:45:00,80.1,71.8,30.06,NE,51,7.0,8.0,76,0.00,,,0.01,751.0,meteohub,2013-10-05 15:45:00,
2013-10-05 11:50:00,80.1,71.4,30.06,NE,52,5.0,8.0,75,0.00,,,0.01,761.0,meteohub,2013-10-05 15:50:00,
2013-10-05 11:55:00,80.1,71.8,30.06,East,91,2.0,8.0,76,0.00,,,0.01,761.0,meteohub,2013-10-05 15:55:00,
2013-10-05 12:00:00,80.4,71.8,30.06,NNE,30,5.0,8.0,75,0.00,,,0.01,777.0,meteohub,2013-10-05 16:00:00,
2013-10-05 12:05:00,80.2,71.6,30.06,NE,37,7.0,9.0,75,0.00,,,0.01,786.0,meteohub,2013-10-05 16:05:00,
2013-10-05 12:10:00,80.1,71.1,30.06,ENE,75,3.0,10.0,74,0.00,,,0.01,807.0,meteohub,2013-10-05 16:10:00,
2013-10-05 12:15:00,80.2,72.0,30.06,ENE,64,2.0,10.0,76,0.00,,,0.01,849.0,meteohub,2013-10-05 16:15:00,
2013-10-05 12:20:00,80.1,71.8,30.06,NE,43,1.0,10.0,76,0.00,,,0.01,121.0,meteohub,2013-10-05 16:20:00,
2013-10-05 12:25:00,80.1,72.1,30.06,NE,41,0.0,9.0,77,0.00,,,0.01,918.0,meteohub,2013-10-05 16:25:00,
2013-10-05 12:30:00,80.2,72.3,30.06,NE,52,0.0,7.0,77,0.00,,,0.01,886.0,meteohub,2013-10-05 16:30:00,
2013-10-05 12:35:00,80.8,72.5,30.05,NNE,24,2.0,8.0,76,0.00,,,0.01,935.0,meteohub,2013-10-05 16:35:00,
2013-10-05 12:40:00,80.8,72.5,30.05,ENE,59,0.0,8.0,76,0.00,,,0.01,935.0,meteohub,2013-10-05 16:40:00,
2013-10-05 12:45:00,81.0,72.7,30.05,NE,46,6.0,8.0,76,0.00,,,0.01,258.0,meteohub,2013-10-05 16:45:00,
2013-10-05 12:50:00,80.8,72.5,30.05,NE,36,6.0,8.0,76,0.00,,,0.01,230.0,meteohub,2013-10-05 16:50:00,
2013-10-05 12:55:00,80.4,72.9,30.05,NNE,31,1.0,8.0,78,0.00,,,0.01,188.0,meteohub,2013-10-05 16:55:00,
2013-10-05 13:00:00,80.1,72.1,30.05,East,83,0.0,8.0,77,0.00,,,0.01,218.0,meteohub,2013-10-05 17:00:00,
2013-10-05 13:05:00,80.6,72.3,30.05,NE,40,1.0,6.0,76,0.00,,,0.01,1000.0,meteohub,2013-10-05 17:05:00,
2013-10-05 13:10:00,81.3,72.3,30.05,ENE,74,9.0,9.0,74,0.00,,,0.01,942.0,meteohub,2013-10-05 17:10:00,
2013-10-05 13:15:00,81.5,72.3,30.04,NNE,30,12.0,12.0,74,0.00,,,0.01,884.0,meteohub,2013-10-05 17:15:00,
2013-10-05 13:20:00,81.5,72.0,30.04,East,97,0.0,13.0,73,0.00,,,0.01,856.0,meteohub,2013-10-05 17:20:00,
2013-10-05 13:25:00,81.9,72.0,30.04,ENE,59,3.0,13.0,72,0.00,,,0.01,840.0,meteohub,2013-10-05 17:25:00,
2013-10-05 13:31:00,82.0,72.5,30.04,NNE,27,8.0,13.0,73,0.00,,,0.01,835.0,meteohub,2013-10-05 17:31:00,
2013-10-05 13:36:00,81.3,71.1,30.03,NE,44,4.0,11.0,71,0.00,,,0.01,826.0,meteohub,2013-10-05 17:36:00,
2013-10-05 13:41:00,81.3,71.4,30.03,ENE,68,7.0,11.0,72,0.00,,,0.01,824.0,meteohub,2013-10-05 17:41:00,
2013-10-05 13:46:00,81.3,71.1,30.03,ENE,67,1.0,11.0,71,0.00,,,0.01,821.0,meteohub,2013-10-05 17:46:00,
2013-10-05 13:51:00,81.7,70.5,30.03,NE,49,2.0,9.0,69,0.00,,,0.01,817.0,meteohub,2013-10-05 17:51:00,
2013-10-05 13:56:00,81.7,70.2,30.03,NE,45,4.0,9.0,68,0.00,,,0.01,814.0,meteohub,2013-10-05 17:56:00,
2013-10-05 14:01:00,81.3,68.9,30.03,ESE,112,2.0,12.0,66,0.00,,,0.01,810.0,meteohub,2013-10-05 18:01:00,
2013-10-05 14:06:00,81.5,69.4,30.03,NNE,25,7.0,12.0,67,0.00,,,0.01,805.0,meteohub,2013-10-05 18:06:00,
2013-10-05 14:11:00,81.3,69.8,30.03,NE,54,0.0,12.0,68,0.00,,,0.01,803.0,meteohub,2013-10-05 18:11:00,
2013-10-05 14:16:00,81.3,69.8,30.02,ESE,119,1.0,10.0,68,0.00,,,0.01,795.0,meteohub,2013-10-05 18:16:00,
2013-10-05 14:21:00,81.3,69.8,30.02,East,87,5.0,10.0,68,0.00,,,0.01,788.0,meteohub,2013-10-05 18:21:00,
2013-10-05 14:26:00,81.7,70.5,30.02,NE,41,4.0,9.0,69,0.00,,,0.01,779.0,meteohub,2013-10-05 18:26:00,
2013-10-05 14:31:00,81.7,70.2,30.02,ESE,103,8.0,9.0,68,0.00,,,0.01,775.0,meteohub,2013-10-05 18:31:00,
2013-10-05 14:36:00,81.3,69.8,30.02,North,355,10.0,10.0,68,0.00,,,0.01,768.0,meteohub,2013-10-05 18:36:00,
2013-10-05 14:41:00,81.1,70.0,30.02,NE,36,4.0,10.0,69,0.00,,,0.01,756.0,meteohub,2013-10-05 18:41:00,
2013-10-05 14:46:00,81.0,70.2,30.02,NNE,28,5.0,10.0,70,0.00,,,0.01,749.0,meteohub,2013-10-05 18:46:00,
2013-10-05 14:51:00,81.1,70.9,30.02,NNE,30,5.0,10.0,71,0.00,,,0.01,737.0,meteohub,2013-10-05 18:51:00,
2013-10-05 14:56:00,81.1,69.1,30.02,NE,38,7.0,10.0,67,0.00,,,0.01,728.0,meteohub,2013-10-05 18:56:00,
2013-10-05 15:01:00,81.1,69.1,30.01,NNE,27,0.0,11.0,67,0.00,,,0.01,721.0,meteohub,2013-10-05 19:01:00,
2013-10-05 15:06:00,81.0,70.2,30.01,ENE,57,1.0,11.0,70,0.00,,,0.01,710.0,meteohub,2013-10-05 19:06:00,
2013-10-05 15:11:00,81.1,69.6,30.01,ENE,57,2.0,7.0,68,0.00,,,0.01,701.0,meteohub,2013-10-05 19:11:00,
2013-10-05 15:16:00,81.1,69.1,30.01,NE,55,2.0,10.0,67,0.00,,,0.01,691.0,meteohub,2013-10-05 19:16:00,
2013-10-05 15:21:00,81.3,69.8,30.01,NNE,20,3.0,10.0,68,0.00,,,0.01,677.0,meteohub,2013-10-05 19:21:00,
2013-10-05 15:26:00,81.1,70.0,30.01,ESE,102,8.0,10.0,69,0.00,,,0.01,668.0,meteohub,2013-10-05 19:26:00,
2013-10-05 15:31:00,81.1,70.3,30.01,ENE,68,1.0,10.0,70,0.00,,,0.01,654.0,meteohub,2013-10-05 19:31:00,
2013-10-05 15:36:00,81.0,70.2,30.01,ENE,71,7.0,10.0,70,0.00,,,0.01,640.0,meteohub,2013-10-05 19:36:00,
2013-10-05 15:41:00,81.0,70.2,30.01,NNE,32,6.0,9.0,70,0.00,,,0.01,629.0,meteohub,2013-10-05 19:41:00,
2013-10-05 15:46:00,81.1,70.0,30.01,NE,36,2.0,9.0,69,0.00,,,0.01,615.0,meteohub,2013-10-05 19:46:00,
2013-10-05 15:51:00,81.1,69.1,30.01,NE,43,8.0,9.0,67,0.00,,,0.01,606.0,meteohub,2013-10-05 19:51:00,
2013-10-05 15:56:00,81.1,69.6,30.01,ENE,64,4.0,9.0,68,0.00,,,0.01,591.0,meteohub,2013-10-05 19:56:00,
2013-10-05 16:01:00,81.3,70.2,30.01,NE,41,0.0,9.0,69,0.00,,,0.01,577.0,meteohub,2013-10-05 20:01:00,
2013-10-05 16:06:00,81.7,69.3,30.01,NNW,346,2.0,9.0,66,0.00,,,0.01,563.0,meteohub,2013-10-05 20:06:00,
2013-10-05 16:11:00,81.1,69.6,30.00,NNE,28,2.0,10.0,68,0.00,,,0.01,547.0,meteohub,2013-10-05 20:11:00,
2013-10-05 16:16:00,81.1,70.0,30.01,NNE,33,2.0,11.0,69,0.00,,,0.01,531.0,meteohub,2013-10-05 20:16:00,
2013-10-05 16:22:00,81.1,69.6,30.01,ENE,65,3.0,11.0,68,0.00,,,0.01,515.0,meteohub,2013-10-05 20:22:00,
2013-10-05 16:27:00,81.0,69.4,30.01,East,79,0.0,11.0,68,0.00,,,0.01,501.0,meteohub,2013-10-05 20:27:00,
2013-10-05 16:32:00,81.1,70.0,30.00,ENE,57,0.0,10.0,69,0.00,,,0.01,483.0,meteohub,2013-10-05 20:32:00,
2013-10-05 16:37:00,81.3,70.2,30.00,NNE,19,6.0,10.0,69,0.00,,,0.01,469.0,meteohub,2013-10-05 20:37:00,
2013-10-05 16:42:00,81.3,70.2,30.00,East,99,1.0,10.0,69,0.00,,,0.01,454.0,meteohub,2013-10-05 20:42:00,
2013-10-05 16:47:00,81.1,70.0,30.00,ESE,119,3.0,9.0,69,0.00,,,0.01,436.0,meteohub,2013-10-05 20:47:00,
2013-10-05 16:52:00,81.0,68.5,30.00,NE,54,5.0,10.0,66,0.00,,,0.01,420.0,meteohub,2013-10-05 20:52:00,
2013-10-05 16:57:00,80.8,69.3,30.00,NE,55,3.0,10.0,68,0.00,,,0.01,403.0,meteohub,2013-10-05 20:57:00,
2013-10-05 17:02:00,80.6,69.1,30.00,ENE,71,4.0,10.0,68,0.00,,,0.01,385.0,meteohub,2013-10-05 21:02:00,
2013-10-05 17:07:00,80.4,69.8,30.00,NNE,28,3.0,10.0,70,0.00,,,0.01,366.0,meteohub,2013-10-05 21:07:00,
2013-10-05 17:12:00,80.2,70.0,30.00,ENE,65,5.0,10.0,71,0.00,,,0.01,320.0,meteohub,2013-10-05 21:12:00,
2013-10-05 17:17:00,80.1,70.2,30.00,ESE,102,0.0,10.0,72,0.00,,,0.01,53.0,meteohub,2013-10-05 21:17:00,
2013-10-05 17:22:00,80.1,69.8,29.99,ENE,69,0.0,10.0,71,0.00,,,0.01,51.0,meteohub,2013-10-05 21:22:00,
2013-10-05 17:27:00,79.7,70.3,30.00,NNE,25,0.0,10.0,73,0.00,,,0.01,97.0,meteohub,2013-10-05 21:27:00,
2013-10-05 17:32:00,79.5,69.6,29.99,NNE,20,3.0,8.0,72,0.00,,,0.01,46.0,meteohub,2013-10-05 21:32:00,
2013-10-05 17:37:00,79.3,70.3,29.99,NE,49,5.0,8.0,74,0.00,,,0.01,76.0,meteohub,2013-10-05 21:37:00,
2013-10-05 17:42:00,79.3,70.0,29.99,ENE,59,2.0,9.0,73,0.00,,,0.01,174.0,meteohub,2013-10-05 21:42:00,
2013-10-05 17:47:00,79.2,70.5,29.99,ENE,63,3.0,9.0,75,0.00,,,0.01,104.0,meteohub,2013-10-05 21:47:00,
2013-10-05 17:52:00,79.0,70.3,29.99,ENE,72,2.0,9.0,75,0.00,,,0.01,63.0,meteohub,2013-10-05 21:52:00,
2013-10-05 17:57:00,78.6,70.3,29.99,NNE,32,4.0,7.0,76,0.00,,,0.01,26.0,meteohub,2013-10-05 21:57:00,
2013-10-05 18:02:00,78.6,70.3,29.99,NNE,33,1.0,7.0,76,0.00,,,0.01,26.0,meteohub,2013-10-05 22:02:00,
2013-10-05 18:07:00,78.4,70.7,29.99,NE,49,0.0,7.0,77,0.00,,,0.01,25.0,meteohub,2013-10-05 22:07:00,
2013-10-05 18:12:00,78.3,70.9,29.99,East,86,1.0,7.0,78,0.00,,,0.01,23.0,meteohub,2013-10-05 22:12:00,
2013-10-05 18:17:00,78.1,71.1,29.99,East,90,0.0,5.0,79,0.00,,,0.01,21.0,meteohub,2013-10-05 22:17:00,
2013-10-05 18:22:00,77.9,70.9,29.99,ENE,72,1.0,5.0,79,0.00,,,0.01,19.0,meteohub,2013-10-05 22:22:00,
2013-10-05 18:27:00,77.7,71.1,29.99,ENE,65,0.0,3.0,80,0.00,,,0.01,18.0,meteohub,2013-10-05 22:27:00,
2013-10-05 18:32:00,77.5,71.2,29.99,ENE,64,1.0,2.0,81,0.00,,,0.01,16.0,meteohub,2013-10-05 22:32:00,
2013-10-05 18:37:00,77.4,71.1,29.99,NE,36,0.0,2.0,81,0.00,,,0.01,14.0,meteohub,2013-10-05 22:37:00,
2013-10-05 18:42:00,77.2,71.2,29.99,NE,36,0.0,3.0,82,0.00,,,0.01,12.0,meteohub,2013-10-05 22:42:00,
2013-10-05 18:47:00,77.0,71.4,29.99,NE,37,0.0,3.0,83,0.00,,,0.01,11.0,meteohub,2013-10-05 22:47:00,
2013-10-05 18:52:00,76.6,71.1,29.99,NE,37,0.0,3.0,83,0.00,,,0.01,11.0,meteohub,2013-10-05 22:52:00,
2013-10-05 18:57:00,76.5,70.9,29.99,NE,37,0.0,2.0,83,0.00,,,0.01,7.0,meteohub,2013-10-05 22:57:00,
2013-10-05 19:02:00,76.1,70.9,29.99,NE,37,0.0,1.0,84,0.00,,,0.01,5.0,meteohub,2013-10-05 23:02:00,
2013-10-05 19:07:00,75.7,70.9,29.99,NE,37,0.0,1.0,85,0.00,,,0.01,0.0,meteohub,2013-10-05 23:07:00,
2013-10-05 19:12:00,75.4,70.5,29.99,NE,37,0.0,1.0,85,0.00,,,0.01,0.0,meteohub,2013-10-05 23:12:00,
2013-10-05 19:17:00,75.0,70.5,29.99,NE,37,0.0,1.0,86,0.00,,,0.01,0.0,meteohub,2013-10-05 23:17:00,
2013-10-05 19:22:00,74.8,70.7,29.99,NE,37,0.0,1.0,87,0.00,,,0.01,0.0,meteohub,2013-10-05 23:22:00,
2013-10-05 19:27:00,74.7,70.5,29.99,NE,37,0.0,0.0,87,0.00,,,0.01,0.0,meteohub,2013-10-05 23:27:00,
2013-10-05 19:32:00,74.3,70.5,29.99,NE,37,0.0,0.0,88,0.00,,,0.01,0.0,meteohub,2013-10-05 23:32:00,
2013-10-05 19:37:00,74.1,70.3,29.99,NE,37,0.0,1.0,88,0.00,,,0.01,0.0,meteohub,2013-10-05 23:37:00,
2013-10-05 19:42:00,73.9,70.2,29.99,NE,37,0.0,1.0,88,0.00,,,0.01,0.0,meteohub,2013-10-05 23:42:00,
2013-10-05 19:47:00,73.8,70.3,29.99,NE,37,0.0,0.0,89,0.00,,,0.01,0.0,meteohub,2013-10-05 23:47:00,
2013-10-05 19:52:00,73.6,70.5,29.99,NE,37,0.0,0.0,90,0.00,,,0.01,0.0,meteohub,2013-10-05 23:52:00,
2013-10-05 19:57:00,73.0,70.0,29.99,NE,37,0.0,0.0,90,0.00,,,0.01,0.0,meteohub,2013-10-05 23:57:00,
2013-10-05 20:02:00,72.9,70.2,29.99,NE,37,0.0,0.0,91,0.00,,,0.01,0.0,meteohub,2013-10-06 00:02:00,
2013-10-05 20:07:00,72.7,70.0,29.99,NE,37,0.0,0.0,91,0.00,,,0.01,0.0,meteohub,2013-10-06 00:07:00,
2013-10-05 20:12:00,72.3,69.6,29.99,NE,37,0.0,0.0,91,0.00,,,0.01,0.0,meteohub,2013-10-06 00:12:00,
2013-10-05 20:17:00,72.1,69.6,29.99,NE,37,0.0,0.0,92,0.00,,,0.01,0.0,meteohub,2013-10-06 00:17:00,
2013-10-05 20:22:00,72.0,69.4,29.99,NE,37,0.0,0.0,92,0.00,,,0.01,0.0,meteohub,2013-10-06 00:22:00,
2013-10-05 20:27:00,71.8,69.6,29.99,NE,37,0.0,0.0,93,0.00,,,0.01,0.0,meteohub,2013-10-06 00:27:00,
2013-10-05 20:32:00,71.4,69.3,29.99,NE,37,0.0,0.0,93,0.00,,,0.01,0.0,meteohub,2013-10-06 00:32:00,
2013-10-05 20:37:00,71.2,69.1,29.99,NE,37,0.0,0.0,93,0.00,,,0.01,0.0,meteohub,2013-10-06 00:37:00,
2013-10-05 20:42:00,71.2,69.1,29.99,NE,37,0.0,0.0,93,0.00,,,0.01,0.0,meteohub,2013-10-06 00:42:00,
2013-10-05 20:47:00,71.1,68.9,30.00,NE,37,0.0,0.0,93,0.00,,,0.01,0.0,meteohub,2013-10-06 00:47:00,
2013-10-05 20:52:00,71.1,69.3,30.00,NE,37,0.0,0.0,94,0.00,,,0.01,0.0,meteohub,2013-10-06 00:52:00,
2013-10-05 20:57:00,71.1,69.3,30.00,NE,37,0.0,0.0,94,0.00,,,0.01,0.0,meteohub,2013-10-06 00:57:00,
2013-10-05 21:02:00,70.9,69.1,30.00,NE,37,0.0,0.0,94,0.00,,,0.01,0.0,meteohub,2013-10-06 01:02:00,
2013-10-05 21:07:00,70.7,68.9,30.00,NE,37,0.0,0.0,94,0.00,,,0.01,0.0,meteohub,2013-10-06 01:07:00,
2013-10-05 21:12:00,70.5,69.1,30.00,NE,37,0.0,0.0,95,0.00,,,0.01,0.0,meteohub,2013-10-06 01:12:00,
2013-10-05 21:17:00,70.3,68.9,30.01,NE,37,0.0,0.0,95,0.00,,,0.01,0.0,meteohub,2013-10-06 01:17:00,
2013-10-05 21:22:00,70.2,68.7,30.01,NE,37,0.0,0.0,95,0.00,,,0.01,0.0,meteohub,2013-10-06 01:22:00,
2013-10-05 21:27:00,70.2,68.7,30.01,NE,37,0.0,0.0,95,0.00,,,0.01,0.0,meteohub,2013-10-06 01:27:00,
2013-10-05 21:32:00,70.0,68.5,30.01,NE,37,0.0,0.0,95,0.00,,,0.01,0.0,meteohub,2013-10-06 01:32:00,
2013-10-05 21:37:00,70.0,68.5,30.00,NE,37,0.0,0.0,95,0.00,,,0.01,0.0,meteohub,2013-10-06 01:37:00,
2013-10-05 21:42:00,70.0,68.5,30.00,NE,37,0.0,0.0,95,0.00,,,0.01,0.0,meteohub,2013-10-06 01:42:00,
2013-10-05 21:47:00,70.0,68.5,30.00,NE,37,0.0,0.0,95,0.00,,,0.01,0.0,meteohub,2013-10-06 01:47:00,
2013-10-05 21:52:00,69.8,68.4,30.00,NE,37,0.0,0.0,95,0.00,,,0.01,0.0,meteohub,2013-10-06 01:52:00,
2013-10-05 21:57:00,69.8,68.5,30.00,NE,37,0.0,0.0,96,0.00,,,0.01,0.0,meteohub,2013-10-06 01:57:00,
2013-10-05 22:02:00,69.6,68.4,30.00,NE,37,0.0,0.0,96,0.00,,,0.01,0.0,meteohub,2013-10-06 02:02:00,
2013-10-05 22:07:00,69.6,68.4,30.00,NE,37,0.0,0.0,96,0.00,,,0.01,0.0,meteohub,2013-10-06 02:07:00,
2013-10-05 22:12:00,69.6,68.4,30.00,NE,37,0.0,0.0,96,0.00,,,0.01,0.0,meteohub,2013-10-06 02:12:00,
2013-10-05 22:17:00,69.4,68.2,30.00,NE,37,0.0,0.0,96,0.00,,,0.01,0.0,meteohub,2013-10-06 02:17:00,
2013-10-05 22:22:00,69.4,68.2,30.00,NE,37,0.0,0.0,96,0.00,,,0.01,0.0,meteohub,2013-10-06 02:22:00,
2013-10-05 22:27:00,69.4,68.2,30.00,NE,37,0.0,0.0,96,0.00,,,0.01,0.0,meteohub,2013-10-06 02:27:00,
2013-10-05 22:32:00,69.4,68.2,30.00,NE,37,0.0,0.0,96,0.00,,,0.01,0.0,meteohub,2013-10-06 02:32:00,
2013-10-05 22:37:00,69.4,68.2,30.00,NE,37,0.0,0.0,96,0.00,,,0.01,0.0,meteohub,2013-10-06 02:37:00,
2013-10-05 22:42:00,69.3,68.0,30.00,NE,37,0.0,0.0,96,0.00,,,0.01,0.0,meteohub,2013-10-06 02:42:00,
2013-10-05 22:47:00,69.1,67.8,30.00,NE,37,0.0,0.0,96,0.00,,,0.01,0.0,meteohub,2013-10-06 02:47:00,
2013-10-05 22:52:00,69.1,67.8,30.00,NE,37,0.0,0.0,96,0.00,,,0.01,0.0,meteohub,2013-10-06 02:52:00,
2013-10-05 22:57:00,69.1,67.8,30.00,NE,37,0.0,0.0,96,0.00,,,0.01,0.0,meteohub,2013-10-06 02:57:00,
2013-10-05 23:02:00,68.9,67.6,30.00,NE,37,0.0,0.0,96,0.00,,,0.01,0.0,meteohub,2013-10-06 03:02:00,
2013-10-05 23:07:00,68.9,67.6,30.00,NE,37,0.0,0.0,96,0.00,,,0.01,0.0,meteohub,2013-10-06 03:07:00,
2013-10-05 23:12:00,68.7,67.5,30.00,NE,37,0.0,0.0,96,0.00,,,0.01,0.0,meteohub,2013-10-06 03:12:00,
2013-10-05 23:17:00,68.7,67.5,30.00,NE,37,0.0,0.0,96,0.00,,,0.01,0.0,meteohub,2013-10-06 03:17:00,
2013-10-05 23:22:00,68.5,67.3,30.00,NE,37,0.0,0.0,96,0.00,,,0.01,0.0,meteohub,2013-10-06 03:22:00,
2013-10-05 23:27:00,68.5,67.3,30.00,NE,37,0.0,0.0,96,0.00,,,0.01,0.0,meteohub,2013-10-06 03:27:00,
2013-10-05 23:32:00,68.5,67.6,30.00,NE,37,0.0,0.0,97,0.00,,,0.01,0.0,meteohub,2013-10-06 03:32:00,
2013-10-05 23:37:00,68.5,67.6,30.00,NE,37,0.0,0.0,97,0.00,,,0.01,0.0,meteohub,2013-10-06 03:37:00,
2013-10-05 23:42:00,68.5,67.6,30.00,NE,37,0.0,0.0,97,0.00,,,0.01,0.0,meteohub,2013-10-06 03:42:00,
2013-10-05 23:47:00,68.5,67.6,30.00,NE,37,0.0,0.0,97,0.00,,,0.01,0.0,meteohub,2013-10-06 03:47:00,
2013-10-05 23:52:00,68.4,67.5,30.00,NE,37,0.0,0.0,97,0.00,,,0.01,0.0,meteohub,2013-10-06 03:52:00,
2013-10-05 23:57:00,68.4,67.5,30.00,NE,37,0.0,0.0,97,0.00,,,0.01,0.0,meteohub,2013-10-06 03:57:00,